Tracking 17152 objects as of 28-April-2015
HD Live streaming from Space Station

INMARSAT 4-F2

Track INMARSAT 4-F2 now!
INMARSAT 4-F2 is classified as:


NORAD ID: 28899
Int'l Code: 2005-044A
Perigee: 35,782.3 km
Apogee: 35,803.9 km
Inclination: 2.4 °
Period: 1,436.1 minutes
Semi major axis: 42164 km
RCS: 4.4668 m2 (large)
Launch date: November 8, 2005
Source: International Mobile Satellite Organization (INMARSAT) (IM)

Nearly the size of a double-decker bus; more than 600 channels.
Your satellite tracking list
Your tracking list is empty




NASA's NSSDC Master Catalog

Two Line Element Set (TLE):
1 28899U 05044A   15116.14063176  .00000118  00000-0  00000+0 0  9990
2 28899 002.4346 000.9291 0002559 043.1943 245.4006 01.00274109 34690

Source of the keplerian elements: AFSPC

N2YO: 447